EW7772 Weather Reports


time (UTC)temp
F
wind
direction
speed
knots
gust
knots
rain 1hr
in
rain 24hr
in
rain mn
in
humidity
%
barometer
mb
20260901230054 58 299 0.0 0.0 0.00 0.00 0.00 81 1021.6
20260901224553 58 300 0.0 0.9 0.00 0.00 0.00 81 1021.6
20260901223052 57 298 0.0 0.9 0.00 0.00 0.00 83 1021.7
20260901221550 57 298 0.0 0.0 0.00 0.00 0.00 83 1021.7
20260901220049 57 298 0.0 0.0 0.00 0.00 0.00 83 1021.6
20260901214549 58 298 0.0 0.0 0.00 0.00 0.00 82 1021.6
20260901213048 58 298 0.0 0.0 0.00 0.00 0.00 81 1021.6
20260901211548 59 298 0.0 0.0 0.00 0.00 0.00 80 1021.6
20260901204547 60 298 0.0 0.0 0.00 0.00 0.00 77 1021.5
20260901203046 60 298 0.0 0.0 0.00 0.00 0.00 77 1021.5
20260901201546 61 298 0.0 0.9 0.00 0.00 0.00 76 1021.4
20260901200045 61 298 0.0 0.0 0.00 0.00 0.00 74 1021.5
20260901194546 62 298 0.0 0.0 0.00 0.00 0.00 74 1021.5
20260901193044 63 298 0.0 0.0 0.00 0.00 0.00 72 1021.4
20260901191545 64 298 0.0 0.0 0.00 0.00 0.00 70 1021.3
20260901190105 65 298 0.0 0.0 0.00 0.00 0.00 69 1021.2
20260901184544 66 298 0.0 0.0 0.00 0.00 0.00 67 1021.0
20260901183044 67 298 0.0 0.0 0.00 0.00 0.00 62 1020.8
20260901181544 68 298 0.0 0.0 0.00 0.00 0.00 59 1020.7
20260901180043 69 298 0.0 0.0 0.00 0.00 0.00 57 1020.4
20260901174550 70 298 0.0 0.0 0.00 0.00 0.00 55 1020.4
20260901173041 70 298 0.0 0.9 0.00 0.00 0.00 54 1020.3
20260901171545 71 298 0.0 0.9 0.00 0.00 0.00 53 1020.3
20260901170041 72 298 0.0 0.9 0.00 0.00 0.00 52 1020.3
20260901164545 72 298 0.0 0.9 0.00 0.00 0.00 48 1020.4
20260901163101 72 298 0.0 2.6 0.00 0.00 0.00 48 1020.5
20260901161539 73 311 0.0 3.5 0.00 0.00 0.00 48 1020.5
20260901160040 73 275 0.0 2.6 0.00 0.00 0.00 48 1020.4
20260901154550 74 291 0.0 1.7 0.00 0.00 0.00 46 1020.5
20260901153041 74 267 0.0 1.7 0.00 0.00 0.00 47 1020.4
20260901151538 74 242 0.0 3.5 0.00 0.00 0.00 48 1020.3
20260901150037 75 268 0.0 3.5 0.00 0.00 0.00 45 1020.4
20260901144536 77 294 0.0 3.5 0.00 0.00 0.00 43 1020.4
20260901143035 76 254 0.0 2.6 0.00 0.00 0.00 44 1020.5
20260901141534 75 240 0.0 2.6 0.00 0.00 0.00 49 1020.5
20260901140033 75 244 0.0 4.3 0.00 0.00 0.00 46 1020.6
20260901134533 76 103 0.0 3.5 0.00 0.00 0.00 47 1020.6
20260901133033 76 273 0.0 4.3 0.00 0.00 0.00 45 1020.7
20260901131529 75 272 0.0 4.3 0.00 0.00 0.00 46 1020.8
20260901130029 74 292 0.0 2.6 0.00 0.00 0.00 49 1020.9
20260901124529 75 213 0.0 3.5 0.00 0.00 0.00 47 1021.0
20260901123027 75 340 0.9 3.5 0.00 0.00 0.00 49 1021.1
20260901121535 74 261 0.0 3.5 0.00 0.00 0.00 51 1021.1
20260901120025 74 276 0.0 5.2 0.00 0.00 0.00 53 1021.1
20260901114525 74 296 0.0 7.8 0.00 0.00 0.00 51 1021.3
20260901113021 74 287 0.0 5.2 0.00 0.00 0.00 53 1021.4
20260901111520 73 294 0.0 4.3 0.00 0.00 0.00 55 1021.4
20260901110019 73 261 0.0 5.2 0.00 0.00 0.00 55 1021.4
20260901104531 73 186 0.9 3.5 0.00 0.00 0.00 56 1021.5
20260901103020 72 290 0.9 5.2 0.00 0.00 0.00 58 1021.5
20260901101515 71 317 0.9 4.3 0.00 0.00 0.00 61 1021.7
20260901100011 70 265 0.0 3.5 0.00 0.00 0.00 63 1021.7
20260901094511 70 290 0.0 2.6 0.00 0.00 0.00 65 1021.8
20260901093006 69 290 0.0 4.3 0.00 0.00 0.00 66 1021.8
20260901091510 69 284 0.0 3.5 0.00 0.00 0.00 68 1021.9
20260901090005 68 286 0.0 2.6 0.00 0.00 0.00 67 1021.9
20260901084605 67 293 0.0 2.6 0.00 0.00 0.00 69 1022.0
20260901083056 66 294 0.0 2.6 0.00 0.00 0.00 72 1021.9
20260901081554 65 292 0.0 0.0 0.00 0.00 0.00 74 1021.9
20260901080106 65 292 0.0 0.9 0.00 0.00 0.00 74 1021.8
20260901074547 64 293 0.0 1.7 0.00 0.00 0.00 76 1021.7
20260901073045 63 293 0.0 0.9 0.00 0.00 0.00 78 1021.7
20260901071532 63 293 0.0 0.9 0.00 0.00 0.00 79 1021.7
20260901070044 62 293 0.0 0.9 0.00 0.00 0.00 81 1021.7
20260901064526 61 293 0.0 0.0 0.00 0.00 0.00 84 1021.7
20260901063027 59 293 0.0 0.0 0.00 0.00 0.00 86 1021.6
20260901061522 58 293 0.0 0.0 0.00 0.00 0.00 88 1021.5
20260901060032 58 293 0.0 0.0 0.00 0.00 0.00 89 1021.4
20260901054525 56 293 0.0 0.0 0.00 0.00 0.00 92 1021.4
20260901053020 55 293 0.0 0.0 0.00 0.00 0.00 92 1021.3
20260901051522 55 293 0.0 0.0 0.00 0.00 0.00 91 1021.4
20260901050017 55 293 0.0 0.0 0.00 0.00 0.00 91 1021.3
20260901044519 55 293 0.0 0.0 0.00 0.00 0.00 91 1021.3
20260901043017 55 293 0.0 0.0 0.00 0.00 0.00 90 1021.2
20260901041512 56 293 0.0 0.0 0.00 0.00 0.00 90 1021.2
20260901040016 56 293 0.0 0.0 0.00 0.00 0.00 90 1021.1
20260901034512 56 293 0.0 0.0 0.00 0.00 0.00 90 1021.0
20260901033027 56 293 0.0 0.0 0.00 0.00 0.00 90 1021.0
20260901031515 56 293 0.0 0.0 0.00 0.00 0.00 90 1021.1
20260901030009 56 293 0.0 0.0 0.00 0.00 0.00 89 1021.1
20260901024509 56 293 0.0 0.0 0.00 0.02 0.00 89 1021.0
20260901023008 56 293 0.0 0.0 0.00 0.02 0.00 89 1021.0
20260901021507 56 293 0.0 0.0 0.00 0.02 0.00 89 1021.0
20260901020006 56 293 0.0 0.0 0.00 0.02 0.00 89 1020.9
20260901014505 56 293 0.0 0.0 0.00 0.13 0.00 89 1020.8
20260901013003 57 293 0.0 0.0 0.00 0.13 0.00 88 1020.7
20260901011501 57 293 0.0 0.0 0.00 0.13 0.00 88 1020.7
20260901010100 57 293 0.0 0.0 0.00 0.13 0.00 87 1020.6
20260901004601 57 293 0.0 0.0 0.00 0.35 0.00 87 1020.5
20260901003106 57 293 0.0 0.0 0.00 0.35 0.00 88 1020.5
20260901001556 57 293 0.0 0.0 0.00 0.35 0.00 86 1020.4
20260901000054 58 293 0.0 0.0 0.00 0.35 0.00 85 1020.4
20260831234552 58 293 0.0 0.0 0.00 0.35 0.00 85 1020.4
20260831233050 59 293 0.0 0.0 0.00 0.35 0.00 84 1020.3
20260831231557 59 293 0.0 0.0 0.00 0.35 0.00 84 1020.3